Погода в Воларах

Чехия     48°54′36″N   13°53′27″E
темп.,
°C
ветер,
м/с
пор.,
м/с
влажн.,
%
обл.,
%
осадки,
мм/ч
давл.,
гПа
погр.,
м
26 января, вт
вт2601:00−5з249499 0.7 1012169
04:00−6зюз239397 0.1 101492
07:00−7юз389165 0.1 1015220
10:00−3зюз61279100 0.0 1015942
13:00−1зюз61277100 0.3 10141120
16:00−1з61380100 0.6 10141037
19:00−2сз41293100 2.6 10171087
22:00−4зсз31195100 0.4 1019713
27 января, ср
ср2701:00−5з3119191 0.4 1020447
04:00−5з3109291 0.1 1019462
07:00−6юз359375 0.1 1019144
10:00−3юз268699 0.0 1019379
13:00−1юз257996 0.0 1016513
16:00−3ююз2288100 0.0 101457
19:00−4юз2592100 0.1 1016249
22:00−5юз3109190 0.2 1015319
28 января, чт
чт2801:00−3юз399193 0.2 1015333
04:00−3зюз3129195 0.0 1014438
07:00−1зюз4119397 0.1 1013473
10:00+1зюз3988100 0.0 1012779
13:00+2юз2991100 0.1 1008614
16:00+2зюз51496100 0.7 1004726
19:00+4зюз51594100 3.4 1002783
22:00+5з71792100 3.5 10011141
29 января, пт
пт2901:00+5зсз51495100 6.6 1003962
04:00+3з21198100 2.4 1004482
07:00+4з41294100 4.1 1003654
10:00+4зюз31194100 1.1 1001545
13:00+3юз41395100 2.8 999735
16:00+5з81792100 3.1 9991214
19:00+3зсз81786100 4.1 10021318
22:00+3з7158496 0.4 10041222
30 января, сб
сб3001:00+2з7169398 1.7 10031175
04:00+3з61487100 0.2 10021176
07:00+2зюз51291100 0.3 1000679
10:00+2зюз499585 0.3 998642
13:00+3юз259493 0.4 996402
16:00+2юз1498100 0.1 995186
19:00+1ююз1199100 0.8 99642
22:00+1с2499100 1.6 998196